RH
24 18 13 8 6 5 4 3 3 4 3 3 3 12 25 66 100 95 100 98 100 100 52 29 28 33 44 55 56 56 54 48 39 33 31 28 28 29 29 30 47 89 47 79 96 73 62
14 10 5 3 2 2 2 2 3 3 4 4 3 3 16 45 95 94 99 100 100 100 51 29 37 51 60 54 48 42 39 38 35 31 28 27 31 38 39 39 61 63 74 62 95 69 46
11 5 3 4 5 6 5 5 5 4 4 4 4 4 3 32 86 91 100 100 99 99 35 38 53 53 48 43 35 35 36 38 36 35 33 37 43 50 66 83 95 51 79 86 84 40 73
5 10 19 47 59 58 29 17 9 8 6 5 5 5 4 19 96 99 100 100 99 66 34 51 46 41 42 35 38 41 43 46 42 35 37 41 41 72 94 87 84 82 92 77 73 83 86
8 40 74 99 100 99 97 52 27 22 15 7 9 7 6 4 61 97 100 99 97 33 48 39 36 38 42 40 48 44 47 56 55 38 35 34 54 75 81 92 96 97 68 73 67 80 84
38 50 70 78 96 86 99 80 63 48 37 16 12 11 10 5 26 96 100 99 79 34 38 35 34 47 47 53 50 45 36 45 41 30 36 73 84 92 87 96 83 71 76 62 74 89 86
60 99 99 98 89 87 77 76 86 75 54 33 24 15 32 92 76 93 91 100 72 42 39 41 40 46 51 57 70 75 64 42 34 31 34 65 88 89 95 93 98 73 80 67 81 83 92
85 92 90 88 89 89 81 74 82 79 74 47 38 22 14 41 100 100 100 97 49 39 46 46 52 58 65 69 81 89 84 83 82 76 78 99 96 97 100 100 100 89 90 75 84 97 85
84 89 88 86 91 95 86 74 71 74 81 50 37 31 17 18 73 82 96 94 41 38 50 44 63 74 88 74 78 95 88 88 80 84 96 97 94 97 99 100 100 88 97 76 89 95 89
88 87 91 87 95 95 88 74 78 72 66 46 32 31 77 88 99 99 100 50 38 53 45 38 70 82 90 75 91 90 76 86 95 95 97 97 100 94 97 92 85 99 82 86 93 81 84
88 89 96 96 95 94 79 76 78 87 79 65 38 42 80 98 62 100 99 37 56 60 69 39 68 85 84 81 84 79 84 95 98 99 99 100 97 99 100 84 91 83 94 99 79 73 90
95 95 95 96 95 95 85 86 80 87 80 60 39 51 97 54 100 100 90 40 62 54 54 48 70 86 80 84 96 95 99 99 98 99 96 93 92 91 93 89 93 90 97 97 80 70 85
95 96 90 96 90 86 90 93 96 92 93 75 32 46 39 61 92 99 76 66 62 67 38 58 79 83 76 89 94 99 95 95 96 98 98 99 100 97 90 95 94 97 98 93 81 79 78
86 84 84 88 88 95 97 97 96 96 96 47 23 92 100 96 93 98 59 65 70 42 54 64 78 74 76 82 92 91 93 98 92 95 95 95 98 98 100 87 97 99 80 68 65 60 67
80 75 71 75 86 96 97 99 100 93 57 29 38 88 94 99 98 98 67 67 62 39 51 66 75 69 70 72 74 75 81 89 88 85 91 95 98 96 95 95 94 71 73 66 73 76 58
74 79 91 92 93 96 96 97 97 82 53 56 99 89 99 99 98 98 78 74 59 42 52 57 48 54 67 63 66 63 75 81 80 85 87 90 98 91 85 71 68 66 62 64 62 58 58
94 95 93 93 95 96 98 86 96 86 44 94 100 99 100 94 98 96 72 77 56 48 53 43 38 51 53 60 60 65 74 74 72 68 70 78 86 98 85 76 66 69 66 54 56 57 37
97 98 100 98 97 91 71 67 95 71 84 96 100 100 98 86 100 72 65 74 48 47 47 36 45 47 51 50 57 57 66 78 62 68 80 73 89 98 93 85 70 66 59 55 59 54 55
88 96 82 68 73 67 59 72 61 92 63 56 100 93 99 97 98 62 63 66 46 42 41 32 45 53 50 53 59 59 52 58 66 65 61 65 67 79 77 73 65 67 58 54 48 45 57
88 79 72 64 70 71 23 17 22 45 56 88 98 97 97 98 88 60 63 63 46 40 36 29 40 51 48 50 52 56 57 47 55 63 59 54 52 59 62 68 58 64 52 47 43 59 56
73 87 84 58 78 71 75 86 89 86 65 87 96 80 78 80 64 57 64 60 41 36 33 28 38 50 48 49 52 53 53 56 54 49 59 62 74 70 68 67 66 63 59 55 49 51 61
80 84 86 54 33 22 27 39 78 82 89 92 94 90 86 58 48 56 66 58 53 31 29 28 31 41 46 51 53 53 53 55 58 52 45 57 69 65 69 71 70 66 62 65 63 58 51
70 60 50 58 55 28 52 68 86 81 82 80 69 61 77 34 37 52 54 57 59 46 32 32 39 40 48 56 53 53 53 54 58 62 59 51 55 54 64 57 54 60 58 60 60 58 54
68 46 44 51 53 54 54 65 71 70 74 74 57 26 23 24 35 44 48 57 61 53 43 39 41 52 58 53 54 48 51 55 54 51 51 55 52 51 60 47 47 60 58 56 53 51 47
63 63 39 44 48 51 55 61 66 60 71 80 59 21 20 22 28 33 39 55 60 54 53 42 50 59 59 54 55 52 50 48 46 47 50 48 44 39 55 48 44 46 53 58 55 50 50
52 46 48 48 47 52 64 66 61 55 71 41 26 19 16 20 26 31 36 49 62 60 60 53 55 61 64 59 58 51 53 43 45 46 45 45 42 39 37 49 32 35 42 48 49 57 33
71 52 46 53 58 62 63 62 61 64 70 33 24 19 20 28 25 30 35 42 57 63 59 54 62 67 67 67 63 56 51 42 52 46 44 46 44 50 48 57 35 29 32 41 54 35 26
70 63 48 53 62 64 62 60 63 68 46 28 23 20 20 27 28 32 37 40 48 61 63 58 70 69 67 65 62 57 52 45 45 44 44 48 51 52 51 60 46 27 31 26 23 20 18
60 68 62 55 62 62 62 63 62 62 58 32 20 19 19 23 33 39 40 43 43 54 62 58 60 51 59 58 56 53 51 48 46 57 44 45 42 44 35 29 25 24 21 22 16 11 9
Wind_Speed
44 44 44 44 43 43 39 38 37 34 31 30 32 35 37 32 31 28 27 32 30 36 15 18 16 13 13 12 13 14 14 16 15 16 16 16 16 16 19 21 22 22 28 26 23 28 32
46 47 46 45 45 43 42 38 34 34 33 32 29 28 36 33 31 28 23 31 36 33 12 15 11 10 9 11 12 11 12 13 13 14 14 14 15 15 20 22 22 18 22 28 25 26 32
46 46 46 47 45 42 43 42 36 31 30 31 31 28 30 30 28 30 23 29 35 27 11 11 6 8 11 10 10 9 9 11 13 14 13 13 15 17 19 20 17 24 25 21 23 29 26
45 44 42 36 34 36 36 38 37 32 25 26 28 29 26 25 27 24 23 28 34 11 9 5 5 9 9 8 7 7 8 11 12 13 14 16 17 17 18 18 21 15 22 25 22 21 25
43 39 33 29 28 27 29 33 33 33 26 22 25 26 23 23 28 23 27 29 21 9 4 3 4 6 7 6 6 8 9 9 12 15 17 18 17 18 20 24 23 16 18 25 20 19 23
40 38 36 34 30 29 28 30 31 31 29 21 24 23 20 17 21 21 20 19 9 9 3 2 1 4 6 6 6 9 9 10 12 15 17 15 16 18 22 16 13 15 20 20 21 23 26
39 32 33 32 30 29 30 28 30 29 29 22 22 18 13 10 8 11 18 20 11 7 3 1 1 3 3 2 5 8 9 10 14 17 18 17 18 21 14 19 11 14 14 15 17 23 22
34 33 33 33 32 31 30 27 28 29 27 20 20 16 11 11 20 11 13 22 6 8 5 4 3 3 4 5 7 9 10 10 12 14 14 13 22 19 13 12 17 12 16 17 13 21 16
33 33 33 33 34 33 25 25 25 26 26 19 17 13 9 10 11 14 9 7 8 10 4 3 4 4 6 5 6 11 11 11 9 12 14 18 16 3 6 9 11 12 16 16 14 19 10
33 35 34 37 34 29 21 21 21 18 14 12 13 8 7 11 12 7 15 6 14 13 3 4 1 2 9 9 6 10 6 9 9 8 10 8 3 6 8 10 12 12 23 16 21 18 8
36 37 36 36 29 21 19 18 18 16 17 14 7 12 12 9 12 10 7 11 13 11 3 5 2 5 11 12 7 8 11 15 14 11 3 6 6 8 9 12 12 7 18 21 21 14 10
40 37 35 29 21 20 16 17 19 16 10 4 8 18 11 10 13 9 5 14 13 5 2 6 4 8 9 7 10 14 19 21 13 7 9 10 12 7 8 10 11 16 17 15 11 9 7
39 30 26 20 17 17 14 16 16 17 14 9 14 22 15 11 12 5 17 17 8 3 8 8 8 9 6 7 7 9 16 19 13 5 9 18 13 11 15 11 7 7 17 4 4 4 4
30 23 21 17 18 14 12 9 5 12 14 11 21 23 14 9 12 7 19 20 3 4 7 10 12 11 8 5 10 11 13 12 14 9 11 6 4 6 12 15 8 9 1 2 5 4 4
29 21 15 13 11 12 12 8 8 7 14 19 22 20 14 10 10 9 20 8 1 7 11 14 13 5 4 6 4 6 9 13 15 13 4 4 7 11 16 17 8 1 6 8 9 8 8
27 21 14 11 12 13 13 5 5 18 19 26 17 18 14 8 8 11 23 4 4 10 15 13 4 4 3 5 4 2 7 12 11 12 10 8 6 12 15 13 11 8 4 2 3 4 5
28 25 19 14 10 3 10 19 23 15 28 28 25 20 14 11 7 14 22 4 7 15 17 7 5 7 2 2 5 5 5 9 8 7 7 5 5 5 16 10 11 10 6 5 5 4 4
46 47 32 15 8 3 10 26 27 20 27 24 27 17 15 14 15 20 20 7 9 17 12 7 6 5 4 3 6 5 6 5 7 11 12 8 7 9 12 11 12 16 15 6 1 4 8
39 44 25 15 13 14 17 18 16 29 27 27 27 18 16 14 16 20 16 11 14 16 12 7 5 4 5 5 4 5 5 8 11 7 5 8 5 3 4 5 8 9 11 12 10 8 6
38 39 40 38 44 47 46 38 32 26 22 19 25 18 17 16 11 19 15 13 14 15 11 5 5 6 5 7 5 5 4 6 8 10 10 8 8 2 4 6 6 5 7 8 8 8 11
40 40 41 37 35 42 44 41 32 21 15 15 6 6 7 13 13 18 16 13 14 15 11 8 6 4 3 3 4 5 5 6 6 7 7 8 12 14 14 10 9 9 8 7 9 10 10
40 35 41 36 30 27 23 21 20 18 13 8 12 6 8 6 15 18 15 13 14 15 13 10 5 5 3 3 3 2 4 4 4 5 6 7 8 10 9 7 5 5 5 6 8 8 8
34 36 36 33 32 28 25 15 15 17 14 12 7 3 7 4 16 18 16 12 14 11 9 9 9 5 2 3 4 4 5 5 6 5 7 6 5 5 2 3 5 5 5 5 3 3 4
24 28 29 27 26 18 23 16 9 8 10 11 8 7 4 4 15 15 17 13 16 12 7 10 11 6 4 5 4 5 6 5 5 4 5 5 4 3 2 2 1 3 1 2 2 1 2
20 19 20 19 15 10 12 7 4 4 10 9 7 4 5 4 11 13 17 16 17 12 9 10 9 6 6 5 2 2 2 2 1 0 1 2 2 2 1 2 1 4 4 3 2 5 7
13 12 14 10 7 7 5 1 2 4 8 7 5 5 4 3 14 14 16 16 16 13 11 12 10 8 7 5 1 2 2 1 1 1 5 3 2 1 1 1 3 3 5 4 5 8 2
6 7 8 8 7 10 8 6 3 2 8 4 6 7 6 3 14 15 17 17 18 15 11 12 12 10 8 6 4 3 3 2 2 2 2 5 5 4 4 3 4 7 6 3 2 4 8
5 8 6 6 7 9 10 7 5 10 6 4 5 6 4 2 10 14 16 14 16 16 12 11 11 12 10 8 4 4 3 4 5 6 3 4 3 4 5 4 4 6 6 5 5 9 13
10 7 9 9 10 6 9 7 8 10 7 1 2 4 4 1 9 13 14 14 14 15 13 10 11 4 10 7 7 4 4 5 6 4 7 6 9 4 7 5 4 5 6 9 11 15 18
Wind_Direction
310 308 307 304 301 298 293 294 294 291 286 277 271 262 264 266 272 280 299 296 301 304 317 304 303 304 303 295 280 286 286 285 284 278 273 270 263 257 256 257 256 245 246 244 246 241 226
315 311 309 305 303 301 299 294 291 290 289 286 281 269 259 261 261 273 295 298 299 307 330 296 302 302 296 292 293 287 289 290 281 274 275 276 271 262 260 263 255 249 255 247 245 244 238
312 310 309 307 305 304 302 301 297 288 284 282 282 276 268 259 261 264 283 303 299 308 321 291 305 299 297 287 288 291 292 294 288 282 285 288 286 281 280 286 271 248 251 254 248 235 240
314 311 309 309 308 309 308 304 303 300 289 276 273 276 272 258 254 258 277 306 297 332 283 283 307 299 296 286 286 279 285 273 270 271 271 276 280 276 268 272 281 256 235 238 235 232 225
314 310 310 306 306 304 305 307 304 302 298 279 280 271 270 268 255 261 267 287 320 299 265 291 299 294 282 300 270 276 263 265 264 263 269 279 279 276 277 281 263 229 225 223 223 224 206
312 309 306 306 302 302 303 307 306 302 298 283 283 280 280 264 251 259 276 288 342 281 263 293 285 298 278 300 274 272 281 272 262 260 262 264 266 269 274 255 224 213 220 215 212 188 199
311 311 307 309 310 306 303 301 301 298 294 283 282 281 296 307 273 259 271 302 307 257 237 107 337 246 315 325 338 325 300 288 283 276 269 270 268 266 270 227 233 223 215 204 197 183 189
310 304 300 300 298 300 301 297 291 291 290 282 276 272 265 224 250 254 270 314 257 218 165 80 305 313 314 1 4 339 320 302 281 278 272 267 265 288 262 229 221 240 202 193 181 165 178
309 304 301 299 298 296 292 294 292 292 286 282 267 267 260 247 207 242 260 293 226 199 193 249 282 13 341 357 337 325 309 303 313 294 278 260 265 299 217 196 197 228 197 174 156 147 155
305 301 300 300 298 297 302 293 292 296 288 284 255 224 229 193 231 233 268 207 223 198 224 229 316 39 14 0 357 328 340 339 305 298 304 295 339 173 162 180 189 206 167 172 161 144 123
304 298 296 305 300 295 297 284 281 276 286 277 244 187 193 197 202 247 288 196 195 176 210 189 96 68 42 37 21 22 8 343 331 336 28 61 84 155 181 179 169 175 163 166 154 144 95
309 307 310 313 306 295 287 271 260 260 270 270 211 182 185 198 174 220 213 198 172 161 226 157 135 88 60 47 40 57 33 24 20 62 87 97 95 113 144 162 152 165 173 156 145 90 59
319 323 321 323 316 301 287 268 258 239 258 261 173 181 187 199 177 243 178 179 161 205 162 145 130 96 76 61 45 48 26 29 40 98 91 90 98 128 140 154 182 160 143 113 88 72 80
336 325 316 316 313 305 292 284 270 225 243 184 172 166 145 154 174 222 173 165 179 159 144 148 130 102 82 36 41 53 42 30 31 56 75 102 106 69 157 146 150 150 334 9 116 118 115
352 342 325 315 307 304 299 292 200 199 165 164 163 166 156 171 194 226 173 180 76 141 146 138 126 109 64 55 46 13 23 35 38 55 82 86 75 114 130 127 134 128 61 86 102 108 99
347 340 336 317 294 289 287 326 194 178 163 162 130 148 161 185 213 191 174 175 105 140 149 140 107 125 115 11 35 33 45 33 45 55 65 82 87 127 121 107 88 89 96 45 78 111 95
354 357 356 347 6 80 32 125 117 158 161 141 136 147 164 185 218 182 176 146 137 145 150 136 121 142 100 55 49 63 79 58 53 51 61 58 63 72 138 90 66 59 38 60 83 64 129
10 14 26 20 53 158 172 137 124 145 151 142 140 154 159 195 189 180 179 165 147 155 156 126 124 132 116 87 51 58 79 79 35 67 71 69 90 97 101 98 76 61 55 82 1 84 91
34 25 30 45 75 80 143 141 153 158 147 147 150 149 171 189 187 176 169 172 156 159 158 131 135 119 104 63 69 68 82 74 52 78 94 101 99 91 99 79 53 62 53 54 81 100 66
37 43 52 70 90 86 91 103 123 129 139 145 147 148 171 188 201 169 165 164 162 166 165 153 143 130 92 58 63 77 75 81 71 69 96 91 83 103 87 102 88 69 53 53 53 69 90
54 51 57 76 87 87 90 93 92 100 137 160 174 169 164 202 187 170 163 166 171 174 175 173 170 144 101 74 71 73 81 87 82 76 83 95 97 100 97 95 86 80 81 78 90 90 112
62 55 59 67 82 90 85 85 76 66 80 139 153 151 177 132 176 169 166 172 181 189 189 190 176 164 120 84 60 91 81 79 87 97 101 110 118 108 91 109 109 86 75 83 96 109 131
59 57 57 69 82 90 85 76 62 74 90 113 123 126 154 157 177 174 172 174 173 178 187 188 175 177 154 90 89 87 77 79 98 96 93 112 122 115 87 97 115 97 89 102 117 129 144
67 64 63 71 84 71 30 35 66 93 87 81 122 70 69 169 177 172 171 169 169 169 176 171 174 167 148 117 103 84 74 82 85 81 74 101 92 78 118 87 115 164 106 134 143 165 214
82 85 82 95 104 84 60 48 97 38 50 77 104 49 27 97 163 162 168 168 173 174 168 175 172 167 163 147 107 25 360 18 355 88 122 114 87 58 56 50 273 253 214 191 239 280 275
84 88 97 96 62 79 82 131 199 8 74 84 41 12 4 174 163 159 166 170 176 178 179 185 183 181 181 196 240 329 332 319 322 286 232 216 198 160 152 187 224 234 204 224 287 283 269
108 93 108 117 105 110 118 137 191 61 118 66 21 16 48 76 167 167 169 174 176 182 192 190 188 191 204 220 266 293 289 276 296 266 242 226 231 222 224 240 251 222 220 241 239 269 313
223 118 114 137 119 121 132 102 113 130 129 55 25 16 22 99 180 174 174 180 184 190 193 199 195 217 223 231 256 257 262 259 271 259 260 227 225 217 212 226 271 197 204 224 271 298 309
229 179 146 164 153 156 161 151 153 159 173 127 3 15 353 330 195 187 186 187 193 198 205 211 211 221 218 221 230 241 259 263 267 272 248 244 220 235 224 235 224 245 274 290 304 314 318